This is the latest recevied weather packets stored in our database for station/object KI4BSX. If no packets are shown the sender has not sent any weather packets the latest 10 day(s).
| Time | Temp. | Humidity | Pressure | Rain* | Wind** | Luminosity | Snow |
|---|---|---|---|---|---|---|---|
| 1777834347 | 20.56° C | 38% | 1021.2 hPa | 0 mm | - | - | - |
| 1777834042 | 20.56° C | 38% | 1021.5 hPa | 0 mm | - | - | - |
| 1777833434 | 20.56° C | 39% | 1021.5 hPa | 0 mm | - | - | - |
| 1777833132 | 20.56° C | 39% | 1021.5 hPa | 0 mm | - | - | - |
| 1777832830 | 20° C | 39% | 1021.5 hPa | 0 mm | - | - | - |
| 1777832224 | 19.44° C | 40% | 1021.5 hPa | 0 mm | - | - | - |
| 1777831618 | 20.56° C | 40% | 1021.7 hPa | 0 mm | - | - | - |
| 1777831317 | 20° C | 41% | 1021.7 hPa | 0 mm | - | - | - |
| 1777829799 | 20° C | 43% | 1021.8 hPa | 0 mm | - | - | - |
| 1777829193 | 19.44° C | 44% | 1022.1 hPa | 0 mm | - | - | - |
| 1777828284 | 18.33° C | 45% | 1022.3 hPa | 0 mm | - | - | - |
| 1777827071 | 18.33° C | 48% | 1022.6 hPa | 0 mm | - | - | - |
| 1777826768 | 18.33° C | 48% | 1022.6 hPa | 0 mm | - | - | - |
| 1777825858 | 18.33° C | 48% | 1022.8 hPa | 0 mm | - | - | - |
| 1777825253 | 18.33° C | 49% | 1022.9 hPa | 0 mm | - | - | - |
| 1777824950 | 17.78° C | 50% | 1023 hPa | 0 mm | - | - | - |
| 1777824344 | 17.78° C | 52% | 1022.9 hPa | 0 mm | - | - | - |
| 1777821316 | 16.11° C | 62% | 1023.1 hPa | 0 mm | - | - | - |
| 1777821012 | 15.56° C | 64% | 1023.3 hPa | 0 mm | - | - | - |
| 1777817072 | 13.33° C | 92% | 1023.1 hPa | 0 mm | - | - | - |
| 1777815856 | 13.89° C | 93% | 1023 hPa | 0 mm | - | - | - |
| 1777815553 | 13.89° C | 95% | 1022.9 hPa | 0 mm | - | - | - |
| 1777811311 | 5.56° C | 97% | 1022.8 hPa | 0 mm | - | - | - |
| 1777810706 | 5° C | 97% | 1022.7 hPa | 0 mm | - | - | - |
| 1777810098 | 4.44° C | 97% | 1022.8 hPa | 0 mm | - | - | - |
* Rain latest hour (hover to see other rain measurements)
** Current wind speed in m/s (hover to see current wind gust speed)